This is the latest recevied weather packets stored in our database for station/object KD4EG. If no packets are shown the sender has not sent any weather packets the latest 1 day(s).
| Time | Temp. | Humidity | Pressure | Rain* | Wind** | Luminosity | Snow |
|---|---|---|---|---|---|---|---|
| 1778022262 | 23.89° C | 35% | 1013.7 hPa | 0 mm | 2.24 m/s, 167° | 52 W/m² | - |
| 1778021954 | 23.89° C | 34% | 1013.7 hPa | 0 mm | 1.79 m/s, 195° | 54 W/m² | - |
| 1778021651 | 23.89° C | 35% | 1014.1 hPa | 0 mm | 3.58 m/s, 196° | 48 W/m² | - |
| 1778021346 | 24.44° C | 35% | 1013.8 hPa | 0 mm | 3.13 m/s, 192° | 46 W/m² | - |
| 1778021044 | 24.44° C | 35% | 1013.8 hPa | 0 mm | 1.79 m/s, 187° | 42 W/m² | - |
| 1778020741 | 25° C | 35% | 1013.9 hPa | 0 mm | 1.34 m/s, 189° | 43 W/m² | - |
| 1778020438 | 25.56° C | 34% | 1013.6 hPa | 0 mm | 2.68 m/s, 241° | 63 W/m² | - |
| 1778020134 | 25.56° C | 33% | 1013.8 hPa | 0 mm | 2.68 m/s, 188° | 125 W/m² | - |
| 1778019830 | 25.56° C | 34% | 1013.7 hPa | 0 mm | 2.24 m/s, 241° | 175 W/m² | - |
| 1778019527 | 25.56° C | 36% | 1013.6 hPa | 0 mm | 1.79 m/s, 209° | 242 W/m² | - |
| 1778019224 | 25° C | 35% | 1013.9 hPa | 0 mm | 3.13 m/s, 182° | 206 W/m² | - |
| 1778018921 | 25° C | 35% | 1013.8 hPa | 0 mm | 1.79 m/s, 167° | 77 W/m² | - |
| 1778018618 | 25° C | 34% | 1013.9 hPa | 0 mm | 2.24 m/s, 167° | 58 W/m² | - |
| 1778018316 | 25.56° C | 34% | 1013.7 hPa | 0 mm | 1.34 m/s, 253° | 131 W/m² | - |
| 1778018014 | 25.56° C | 32% | 1013.8 hPa | 0 mm | 3.13 m/s, 163° | 193 W/m² | - |
| 1778017711 | 25.56° C | 32% | 1014 hPa | 0 mm | 4.02 m/s, 182° | 244 W/m² | - |
| 1778017409 | 26.11° C | 34% | 1013.7 hPa | 0 mm | 3.13 m/s, 178° | 279 W/m² | - |
| 1778017105 | 25.56° C | 35% | 1013.8 hPa | 0 mm | 3.13 m/s, 145° | 311 W/m² | - |
| 1778016804 | 25.56° C | 35% | 1013.6 hPa | 0 mm | 1.34 m/s, 224° | 337 W/m² | - |
| 1778016499 | 25.56° C | 34% | 1013.6 hPa | 0 mm | 2.68 m/s, 162° | 167 W/m² | - |
| 1778016196 | 26.11° C | 34% | 1013.8 hPa | 0 mm | 1.34 m/s, 229° | 275 W/m² | - |
| 1778015892 | 25.56° C | 34% | 1013.9 hPa | 0 mm | 4.47 m/s, 177° | 413 W/m² | - |
| 1778015590 | 25.56° C | 34% | 1014 hPa | 0 mm | 4.92 m/s, 182° | 149 W/m² | - |
| 1778015286 | 25.56° C | 32% | 1013.7 hPa | 0 mm | 3.13 m/s, 146° | 250 W/m² | - |
| 1778014983 | 25.56° C | 32% | 1013.6 hPa | 0 mm | 5.36 m/s, 158° | 398 W/m² | - |
* Rain latest hour (hover to see other rain measurements)
** Current wind speed in m/s (hover to see current wind gust speed)